Regional Weather Roundup
Issued by NWS

Home | Current Version | Previous Version | Graphics & Text | Print | Product List | Glossary On
Versions: 1 2 3 4 5 6 7 8 9 10 11 12 13 14 15 16 17 18 19 20 21 22 23 24 25 26 27 28 29 30 31 32 33 34 35 36 37 38 39 40 41 42 43 44 45 46 47 48 49 50
000
ASUS43 KLMK 171310
RWRKY
KENTUCKY REGIONAL WEATHER ROUNDUP
NATIONAL WEATHER SERVICE LOUISVILLE KY
800 AM EST WED JAN 17 2018

NOTE "FAIR" INDICATES FEW OR NO CLOUDS BELOW 12,000 FEET
WITH NO SIGNIFICANT WEATHER AND/OR OBSTRUCTIONS TO VISIBILITY.

KYZ001>023-026-027-061>063-070>075-171400-
WESTERN AND SOUTH CENTRAL KENTUCKY

CITY           SKY/WX    TMP DP  RH WIND       PRES   REMARKS
PADUCAH        FAIR       9   3  77 CALM      30.68F
HENDERSON      FLURRIES  10   4  76 NW12      30.68R WCI  -5
OWENSBORO      FLURRIES  11   6  81 NW10      30.66R WCI  -3
HOPKINSVILLE   CLOUDY     9   5  85 NW7       30.65R BLWGSNOWWCI  -3
BOWLING GREEN  CLOUDY    10   5  80 N5        30.64R WCI   2
GLASGOW        LGT SNOW   7   5  89 NW3       30.60S
$$

KYZ024-025-028>034-038-045-046-053-171400-
NORTH CENTRAL KENTUCKY

CITY           SKY/WX    TMP DP  RH WIND       PRES   REMARKS
LOUISVILLE/SDF FLURRIES  10   5  80 NW6       30.60F WCI   0
LOUISVILLE/LOU CLOUDY    10   5  80 NW7       30.61S WCI  -1
FORT KNOX      CLOUDY     7   3  83 W9        30.56F WCI  -6
$$

KYZ035>037-039>044-047>052-055>060-089>105-171400-
NORTHEAST KENTUCKY

CITY           SKY/WX    TMP DP  RH WIND       PRES   REMARKS
LEXINGTON      LGT SNOW   7   2  80 W3        30.54S
COVINGTON      LGT SNOW   8   5  87 W6        30.53S FOG     WCI  -2
FRANKFORT      CLOUDY     8   2  76 W5        30.55S WCI   0
$$

KYZ054-064>069-076>088-106>120-171400-
SOUTHEAST KENTUCKY

CITY           SKY/WX    TMP DP  RH WIND       PRES   REMARKS
JACKSON        LGT SNOW   5   1  83 CALM      30.48S FOG
LONDON         LGT SNOW   4   0  83 CALM      30.51S
SOMERSET       LGT SNOW   5   3  92 N3        30.57S
MIDDLESBORO    CLOUDY     7   1  76 N8        30.49S WCI  -6
MONTICELLO     LGT SNOW   6   3  87 N12       30.57S FOG     WCI  -9
$$





USA.gov is the U.S. government's official web portal to all federal, state and local government web resources and services.